ARIANE 1 DEB, 40775

Orbit data source: Space-Track

ARIANE 1 DEB, 40775 is space debris in HEO originally from a launch on Mon, 24 Dec 1979 UTC launched from the French Guiana (FRGUI). Debris objects in space refer to the collection of defunct objects orbiting the Earth. Examples of debris include non-operational satellites, rocket bodies, and fragments generated from explosions, collisions, or faulty payload assembly.

Loading next visibility...
Identifier
40775, 1979-104AC
Orbit
HEO
Last TLE update
1 year ago
Origin
Manufacturer
Unknown
Mission
Spacecraft
Bus & Motor
Unknown
Mass
Unknown
Launch date (UTC)
1979-12-24 (46 years ago)
Launch vehicle
Unknown
Launch site
French Guiana (FRGUI)
Object type
Payload
Rocket body
Debris
Shape & HBR
Unknown
Radar Cross Section
Small (<0.1 m²)

Expand to show TLE details & history

TLE from 1 year ago
0 ARIANE 1 DEB
1 40775U 79104AC  24187.87271102 -.00000548  00000-0 -10973-1 0  9994
2 40775  16.1398  99.7141 7224346 274.5783  13.6979  2.14489025 18568
Epoch: 2024-07-05T20:56Z
TLE epoch observation values (Epoch: 2024-07-05T20:56:42.232Z)
Latitude
0.0008°
Longitude
-138.95599°
Altitude
5,132.372 km
Speed
7.318 km/s
True Right ascension
06h 38m 15s
True Declination
0° 00' 03"
Sunlit
Object was in daylight at epoch
Visualization orbit readout
Latitude
-12.56768°
Longitude
45.99414°
Altitude
32,186.047 km
Speed
2.235 km/s
Apparent Right ascension
18h 49m 05s
Apparent Declination
-20° 42' 33"
Sunlit
Object is in daylight
Visualization observer readout
Local Sidereal Time
19:59:03
Azimuth
198.433° SSW
Elevation
27.215°
Doppler factor
1
Orbital elements
Apogee altitude
37,376.166 km
Perigee altitude
672.744 km
Semi-major axis
25,402.592 km
Eccentricity
0.72243
Inclination
16.1398°
RAAN
99.7141°
Arg. of periapsis
274.5783°
True anomaly
Unknown
Mean anomaly
13.6979°
Eccentric anomaly
Unknown
Mean motion
0.53608 °/min
Orbital period
671.55 mins
BSTAR
-0.010973
Loading maneuver chart data...
Loading SW <> Apogee altitude chart data...
Loading historical data...
Loading historical data...
Loading historical data...
Loading historical data...
Loading historical data...
Loading historical data...
Loading historical data...

ARIANE 1 DEB Visibility forecast

Observer location: undefined°, undefined°

Span
Click to sort rows by Start time (UTC) header in descending order
Start Az.
Max El. time (UTC)
Max El. Az.
Max El.
End time (UTC)
End Az.
464 mins2025-07-06 08:01:17.898Z198.427° SSW2025-07-06 15:35:17.898Z202.738° SW28.561°2025-07-06 15:45:17.898Z142.307° SSE
248 mins2025-07-07 03:53:17.898Z186.519° SSW2025-07-07 08:01:17.898Z183.659° SSW28.8°2025-07-07 08:01:17.898Z183.659° SSW
|